Terug naar catalogus

CZ-4 DEB

ActiefSSO
NORAD 28074·DEBRIS·🇨🇳 China

Gelanceerd Oct 14, 1999 vanaf Taiyuan Satellite Launch Center

Loading…

Volgende Passages (komende 24 uur)

TLE

VersSource: Space-Track

Epoch: Sep 14, 2026, 09:15 UTC

1 28074U 99057NE  26257.38554632  .00000092  00000-0  46757-4 0  9993
2 28074  98.8211 300.1342 0103738 103.9273 269.7690 14.34147884236286

Volg CZ-4 DEB in realtime met AllMySat

Download on the App Store